�������C�����ː����j�^�v���󋵏��
Date,Time,Cs137(Bq/L),Cs134(Bq/L),�S��(Bq/L)
2019/03/23,00:00,-,-,13
2019/03/23,00:10,-,-,12
2019/03/23,00:20,-,-,15
2019/03/23,00:30,-,-,14
2019/03/23,00:40,-,-,13
2019/03/23,00:50,-,-,14
2019/03/23,01:00,-,-,14
2019/03/23,01:10,-,-,13
2019/03/23,01:20,-,-,13
2019/03/23,01:30,-,-,15
2019/03/23,01:40,-,-,15
2019/03/23,01:50,-,-,15
2019/03/23,02:00,-,-,15
2019/03/23,02:10,-,-,17
2019/03/23,02:20,-,-,17
2019/03/23,02:30,-,-,14
2019/03/23,02:40,-,-,14
2019/03/23,02:50,-,-,13
2019/03/23,03:00,-,-,13
2019/03/23,03:10,-,-,12
2019/03/23,03:20,-,-,12
2019/03/23,03:30,-,-,13
2019/03/23,03:40,-,-,13
2019/03/23,03:50,-,-,12
2019/03/23,04:00,-,-,11
2019/03/23,04:10,-,-,12
2019/03/23,04:20,-,-,11
2019/03/23,04:30,-,-,8.8
2019/03/23,04:40,-,-,9.3
2019/03/23,04:50,-,-,11
2019/03/23,05:00,-,-,15
2019/03/23,05:10,-,-,13
2019/03/23,05:20,-,-,15
2019/03/23,05:30,-,-,17
2019/03/23,05:40,-,-,20
2019/03/23,05:50,-,-,15
2019/03/23,06:00,-,-,12
2019/03/23,06:10,-,-,14
2019/03/23,06:20,-,-,12
2019/03/23,06:30,-,-,12
2019/03/23,06:40,-,-,8.9
2019/03/23,06:50,-,-,12
2019/03/23,07:00,-,-,14
2019/03/23,07:10,-,-,13
2019/03/23,07:20,-,-,15
2019/03/23,07:30,-,-,16
2019/03/23,07:40,-,-,18
2019/03/23,07:50,-,-,20
2019/03/23,08:00,-,-,18
2019/03/23,08:10,-,-,18
2019/03/23,08:20,-,-,18
2019/03/23,08:30,-,-,19
2019/03/23,08:40,-,-,16
2019/03/23,08:50,-,-,17
2019/03/23,09:00,-,-,17
2019/03/23,09:10,-,-,17
2019/03/23,09:20,-,-,18
2019/03/23,09:30,-,-,17
2019/03/23,09:40,-,-,19
2019/03/23,09:50,-,-,19
2019/03/23,10:00,-,-,19
2019/03/23,10:10,-,-,16
2019/03/23,10:20,-,-,16
2019/03/23,10:30,-,-,14
2019/03/23,10:40,-,-,16
2019/03/23,10:50,-,-,15
2019/03/23,11:00,-,-,14
2019/03/23,11:10,-,-,16
2019/03/23,11:20,-,-,17
2019/03/23,11:30,-,-,18
2019/03/23,11:40,-,-,16
2019/03/23,11:50,-,-,14
2019/03/23,12:00,-,-,18
2019/03/23,12:10,-,-,17
2019/03/23,12:20,-,-,15
2019/03/23,12:30,-,-,13
2019/03/23,12:40,-,-,12
2019/03/23,12:50,-,-,14
2019/03/23,13:00,-,-,13
2019/03/23,13:10,-,-,15
2019/03/23,13:20,-,-,16
2019/03/23,13:30,-,-,17
2019/03/23,13:40,-,-,20
2019/03/23,13:50,-,-,17
2019/03/23,14:00,-,-,19
2019/03/23,14:10,-,-,18
2019/03/23,14:20,-,-,16
2019/03/23,14:30,-,-,18
2019/03/23,14:40,-,-,19
2019/03/23,14:50,-,-,20
2019/03/23,15:00,-,-,17
2019/03/23,15:10,-,-,19
2019/03/23,15:20,-,-,20
2019/03/23,15:30,-,-,19
2019/03/23,15:40,-,-,17
2019/03/23,15:50,-,-,20
2019/03/23,16:00,-,-,19
2019/03/23,16:10,-,-,18
2019/03/23,16:20,-,-,22
2019/03/23,16:30,-,-,20
2019/03/23,16:40,-,-,21
2019/03/23,16:50,-,-,19
2019/03/23,17:00,-,-,20
2019/03/23,17:10,-,-,22
2019/03/23,17:20,-,-,21
2019/03/23,17:30,-,-,21
2019/03/23,17:40,-,-,20
2019/03/23,17:50,-,-,20
2019/03/23,18:00,-,-,19
2019/03/23,18:10,-,-,17
2019/03/23,18:20,-,-,17
2019/03/23,18:30,-,-,17
2019/03/23,18:40,-,-,16
2019/03/23,18:50,-,-,14
2019/03/23,19:00,-,-,15
2019/03/23,19:10,-,-,15
2019/03/23,19:20,-,-,12
2019/03/23,19:30,-,-,9.7
2019/03/23,19:40,-,-,8.8
2019/03/23,19:50,-,-,13
2019/03/23,20:00,-,-,14
2019/03/23,20:10,-,-,14
2019/03/23,20:20,-,-,16
2019/03/23,20:30,-,-,20
2019/03/23,20:40,-,-,21
2019/03/23,20:50,-,-,17
2019/03/23,21:00,-,-,17
2019/03/23,21:10,-,-,18
2019/03/23,21:20,-,-,18
2019/03/23,21:30,-,-,19
2019/03/23,21:40,-,-,20
2019/03/23,21:50,-,-,23
2019/03/23,22:00,-,-,24
2019/03/23,22:10,-,-,23
2019/03/23,22:20,-,-,23
2019/03/23,22:30,-,-,23
2019/03/23,22:40,-,-,22
2019/03/23,22:50,-,-,21
2019/03/23,23:00,-,-,21
2019/03/23,23:10,-,-,22
2019/03/23,23:20,-,-,19
2019/03/23,23:30,-,-,18
2019/03/23,23:40,-,-,20
2019/03/23,23:50,-,-,17
